GW2930 Weather Reports


Display with metric or nautical units.
time (UTC)temp
F
wind
direction
speed
MPH
gust
MPH
rain 1hr
in
rain 24hr
in
rain mn
in
humidity
%
barometer
mb
20260506212124 68 289 5.0 11.0 0.00 0.00 0.00 68 1020.2
20260506211620 67 256 7.0 10.0 0.00 0.00 0.00 69 1020.1
20260506211117 68 170 3.0 11.0 0.00 0.00 0.00 69 1020.0
20260506210614 67 288 6.0 10.0 0.00 0.00 0.00 70 1020.2
20260506210110 67 287 4.0 8.0 0.00 0.00 0.00 71 1020.1
20260506205608 67 222 5.0 13.0 0.00 0.00 0.00 70 1020.2
20260506205103 67 285 5.0 9.0 0.00 0.00 0.00 69 1020.2
20260506204601 67 220 2.0 10.0 0.00 0.00 0.00 70 1020.3
20260506204058 66 43 2.0 12.0 0.00 0.00 0.00 72 1020.3
20260506203556 67 289 3.0 13.0 0.00 0.00 0.00 70 1020.0
20260506203052 67 222 3.0 12.0 0.00 0.00 0.00 70 1020.1
20260506202550 68 170 2.0 14.0 0.00 0.00 0.00 69 1020.2
20260506202046 68 295 2.0 9.0 0.00 0.00 0.00 69 1020.1
20260506201544 68 194 3.0 8.0 0.00 0.00 0.00 69 1020.2
20260506201040 68 244 5.0 12.0 0.00 0.00 0.00 69 1020.5
20260506200536 69 204 5.0 7.0 0.00 0.00 0.00 68 1020.2
20260506200033 68 266 3.0 10.0 0.00 0.00 0.00 68 1020.2
20260506195530 67 272 2.0 12.0 0.00 0.00 0.00 70 1020.3
20260506195026 67 252 7.0 10.0 0.00 0.00 0.00 69 1020.4
20260506194524 68 208 2.0 9.0 0.00 0.00 0.00 69 1020.5
20260506194020 68 282 6.0 10.0 0.00 0.00 0.00 68 1020.4
20260506193518 68 316 3.0 8.0 0.00 0.00 0.00 68 1020.7
20260506193015 68 256 1.0 11.0 0.00 0.00 0.00 69 1020.5
20260506192511 69 272 4.0 7.0 0.00 0.00 0.00 68 1020.5
20260506192007 69 321 5.0 10.0 0.00 0.00 0.00 67 1020.6
20260506191504 70 272 2.0 9.0 0.00 0.00 0.00 66 1020.7
20260506191001 70 294 3.0 9.0 0.00 0.00 0.00 67 1020.8
20260506190458 69 278 5.0 9.0 0.00 0.00 0.00 67 1020.7
20260506185954 70 8 2.0 11.0 0.00 0.00 0.00 66 1020.9
20260506185451 70 330 1.0 8.0 0.00 0.00 0.00 67 1020.9
20260506184942 70 277 2.0 8.0 0.00 0.00 0.00 66 1020.8
20260506184439 71 18 2.0 6.0 0.00 0.00 0.00 65 1020.7
20260506183937 72 288 0.0 4.0 0.00 0.00 0.00 65 1020.8
20260506183432 70 33 1.0 5.0 0.00 0.00 0.00 67 1020.9
20260506182929 71 341 0.0 6.0 0.00 0.00 0.00 66 1020.8
20260506182426 70 203 1.0 7.0 0.00 0.00 0.00 67 1020.7
20260506181924 71 329 2.0 7.0 0.00 0.00 0.00 65 1020.9
20260506181422 71 76 0.0 3.0 0.00 0.00 0.00 61 1021.0
20260506180918 71 67 5.0 5.0 0.00 0.00 0.00 60 1020.7
20260506180414 72 106 1.0 5.0 0.00 0.00 0.00 60 1020.6
20260506175911 72 345 0.0 4.0 0.00 0.00 0.00 59 1020.9
20260506175408 72 355 0.0 3.0 0.00 0.00 0.00 61 1020.8
20260506174905 73 295 2.0 5.0 0.00 0.00 0.00 59 1020.7
20260506174403 71 44 0.0 2.0 0.00 0.00 0.00 63 1020.9
20260506173900 71 311 1.0 5.0 0.00 0.00 0.00 62 1020.7
20260506173356 71 333 1.0 3.0 0.00 0.00 0.00 61 1021.0
20260506172854 71 33 2.0 6.0 0.00 0.00 0.00 62 1020.7
20260506172350 72 135 3.0 4.0 0.00 0.00 0.00 61 1020.8
20260506171848 71 6 2.0 4.0 0.00 0.00 0.00 63 1020.8
20260506171344 69 89 0.0 4.0 0.00 0.00 0.00 66 1020.8
20260506170842 69 6 2.0 5.0 0.00 0.00 0.00 64 1021.1
20260506170337 70 344 2.0 4.0 0.00 0.00 0.00 65 1020.9
20260506165831 69 52 0.0 4.0 0.00 0.00 0.00 66 1020.9
20260506165328 69 42 3.0 4.0 0.00 0.00 0.00 68 1021.3
20260506164819 68 55 0.0 4.0 0.00 0.00 0.00 69 1021.2
20260506164316 67 300 2.0 5.0 0.00 0.00 0.00 70 1021.2
20260506163813 67 264 0.0 3.0 0.00 0.00 0.00 68 1021.2
20260506163308 67 40 3.0 7.0 0.00 0.00 0.00 68 1021.1
20260506162803 68 101 2.0 4.0 0.00 0.00 0.00 67 1021.3
20260506162301 67 247 0.0 5.0 0.00 0.00 0.00 69 1021.1
20260506161758 68 24 0.0 3.0 0.00 0.00 0.00 68 1021.1
20260506161256 68 95 2.0 4.0 0.00 0.00 0.00 69 1021.1
20260506160748 67 76 0.0 6.0 0.00 0.00 0.00 70 1021.2
20260506160244 67 10 2.0 4.0 0.00 0.00 0.00 69 1021.4
20260506155743 66 47 2.0 5.0 0.00 0.00 0.00 69 1021.2
20260506155240 67 51 2.0 5.0 0.00 0.00 0.00 69 1021.1
20260506153352 67 53 3.0 4.0 0.00 0.00 0.00 69 1021.1
20260506152849 66 22 0.0 3.0 0.00 0.00 0.00 71 1021.3
20260506152346 66 9 0.0 5.0 0.00 0.00 0.00 71 1021.3
20260506151845 66 45 2.0 4.0 0.00 0.00 0.00 71 1021.4
20260506151341 66 65 2.0 3.0 0.00 0.00 0.00 71 1021.4
20260506150839 66 32 0.0 3.0 0.00 0.00 0.00 72 1021.3
20260506150335 65 342 0.0 5.0 0.00 0.00 0.00 73 1021.6
20260506145832 65 147 0.0 5.0 0.00 0.00 0.00 72 1021.4
20260506145328 64 50 0.0 3.0 0.00 0.00 0.00 75 1021.3
20260506144826 64 110 1.0 3.0 0.00 0.00 0.00 74 1021.2
20260506144322 66 57 3.0 3.0 0.00 0.00 0.00 73 1021.5
20260506143821 64 83 1.0 3.0 0.00 0.00 0.00 77 1021.2
20260506143317 63 131 1.0 3.0 0.00 0.00 0.00 77 1021.5
20260506142816 61 199 0.0 3.0 0.00 0.00 0.00 81 1021.5
20260506142313 60 301 1.0 3.0 0.00 0.00 0.00 91 1021.2
20260506141812 58 348 0.0 2.0 0.00 0.00 0.00 93 1021.5
20260506141309 55 28 0.0 2.0 0.00 0.00 0.00 93 1021.2
20260506140807 54 69 0.0 2.0 0.00 0.00 0.00 93 1021.3
20260506140303 54 168 0.0 2.0 0.00 0.00 0.00 93 1021.2
20260506135801 54 262 0.0 2.0 0.00 0.00 0.00 93 1021.1
20260506135257 54 60 0.0 2.0 0.00 0.00 0.00 94 1020.9
20260506134754 53 60 0.0 2.0 0.00 0.00 0.00 94 1020.8
20260506134250 53 125 0.0 2.0 0.00 0.00 0.00 94 1020.7
20260506133747 53 41 0.0 3.0 0.00 0.00 0.00 94 1021.0
20260506133244 53 283 0.0 3.0 0.00 0.00 0.00 94 1020.8
20260506132741 53 287 0.0 2.0 0.00 0.00 0.00 94 1020.9
20260506132238 53 93 0.0 3.0 0.00 0.00 0.00 94 1020.7
20260506131736 53 167 0.0 2.0 0.00 0.00 0.00 94 1020.6
20260506131232 53 320 0.0 2.0 0.00 0.00 0.00 94 1020.5
20260506130729 53 290 0.0 3.0 0.00 0.00 0.00 94 1020.7
20260506130226 53 105 0.0 2.0 0.00 0.00 0.00 94 1020.5
20260506125724 54 20 0.0 3.0 0.00 0.00 0.00 94 1020.4
20260506125221 54 292 1.0 2.0 0.00 0.00 0.00 94 1020.4
20260506124719 54 315 0.0 2.0 0.00 0.00 0.00 94 1020.4
20260506124217 54 25 1.0 2.0 0.00 0.00 0.00 93 1020.4
20260506123714 54 228 0.0 3.0 0.00 0.00 0.00 93 1020.2
20260506123213 54 198 1.0 2.0 0.00 0.00 0.00 94 1020.3
20260506122709 54 180 0.0 4.0 0.00 0.00 0.00 94 1020.3
20260506122207 54 220 3.0 4.0 0.00 0.00 0.00 94 1020.2
20260506121704 54 203 2.0 4.0 0.00 0.00 0.00 94 1020.1
20260506121201 54 215 3.0 5.0 0.00 0.00 0.00 94 1020.1
20260506120659 54 210 2.0 4.0 0.00 0.00 0.00 94 1020.0
20260506120156 54 218 3.0 5.0 0.00 0.00 0.00 94 1020.0
20260506115654 54 215 2.0 4.0 0.00 0.00 0.00 94 1020.2
20260506115152 54 210 0.0 4.0 0.00 0.00 0.00 95 1020.1
20260506114649 53 177 2.0 4.0 0.00 0.00 0.00 95 1019.9
20260506114147 53 233 3.0 5.0 0.00 0.00 0.00 95 1020.2
20260506113645 53 215 4.0 7.0 0.00 0.00 0.00 95 1019.9
20260506113142 53 187 3.0 5.0 0.00 0.00 0.00 95 1020.0
20260506112638 53 202 4.0 5.0 0.00 0.00 0.00 95 1020.0
20260506112136 53 196 2.0 3.0 0.00 0.00 0.00 95 1020.0
20260506111633 53 224 0.0 4.0 0.00 0.00 0.00 95 1020.0
20260506111131 53 241 0.0 4.0 0.00 0.00 0.00 95 1019.9
20260506110628 53 226 2.0 4.0 0.00 0.00 0.00 95 1019.8
20260506110125 53 220 1.0 6.0 0.00 0.00 0.00 95 1019.9
20260506105622 53 181 0.0 4.0 0.00 0.00 0.00 95 1019.9
20260506105119 53 237 3.0 5.0 0.00 0.00 0.00 95 1019.8
20260506104617 53 162 1.0 4.0 0.00 0.00 0.00 95 1019.8
20260506104114 53 235 0.0 4.0 0.00 0.00 0.00 95 1019.9
20260506103611 53 245 1.0 4.0 0.00 0.00 0.00 95 1019.9
20260506103108 53 237 1.0 3.0 0.00 0.00 0.00 96 1019.9
20260506102606 53 189 2.0 4.0 0.00 0.00 0.00 96 1019.8
20260506102104 53 200 3.0 4.0 0.00 0.00 0.00 96 1019.9
20260506101600 53 159 0.0 3.0 0.00 0.00 0.00 96 1019.9
20260506101057 53 251 1.0 4.0 0.00 0.00 0.00 96 1019.8
20260506100555 53 211 1.0 4.0 0.00 0.00 0.00 96 1019.8
20260506100053 53 246 0.0 4.0 0.00 0.00 0.00 96 1019.9
20260506095552 53 210 3.0 5.0 0.00 0.00 0.00 96 1020.0
20260506095048 53 204 1.0 5.0 0.00 0.00 0.00 95 1020.0
20260506094545 53 209 2.0 4.0 0.00 0.00 0.00 95 1020.0
20260506094043 54 214 2.0 6.0 0.00 0.00 0.00 95 1020.0
20260506093541 54 210 3.0 5.0 0.00 0.00 0.00 95 1020.1
20260506093038 54 180 2.0 6.0 0.00 0.00 0.00 95 1020.2
20260506092536 54 229 2.0 5.0 0.00 0.00 0.00 94 1020.1
20260506092033 54 214 3.0 5.0 0.00 0.00 0.00 94 1019.9
20260506091531 55 216 3.0 6.0 0.00 0.00 0.00 94 1020.0
20260506091028 55 229 3.0 4.0 0.00 0.00 0.00 94 1019.9
20260506090526 55 192 1.0 5.0 0.00 0.00 0.00 94 1020.0
20260506090022 55 229 2.0 5.0 0.00 0.00 0.00 94 1020.0
20260506085519 55 221 3.0 6.0 0.00 0.00 0.00 93 1020.1
20260506085015 55 106 0.0 3.0 0.00 0.00 0.00 93 1019.9
20260506084512 55 202 2.0 4.0 0.00 0.00 0.00 94 1020.2
20260506084008 55 243 2.0 4.0 0.00 0.00 0.00 94 1020.1
20260506083506 55 198 2.0 5.0 0.00 0.00 0.00 94 1019.7
20260506083003 55 212 2.0 5.0 0.00 0.00 0.00 94 1019.9
20260506082500 55 214 3.0 6.0 0.00 0.00 0.00 94 1019.8
20260506081955 55 220 3.0 6.0 0.00 0.00 0.00 94 1020.0
20260506081454 55 220 2.0 5.0 0.00 0.00 0.00 94 1019.7
20260506080951 55 216 1.0 4.0 0.00 0.00 0.00 94 1019.9
20260506080448 55 208 2.0 5.0 0.00 0.00 0.00 94 1019.8
20260506073431 55 214 1.0 5.0 0.00 0.00 0.00 93 1019.7
20260506072929 55 234 1.0 5.0 0.00 0.00 0.00 93 1019.7
20260506072426 55 214 3.0 5.0 0.00 0.00 0.00 93 1019.6
20260506071924 55 243 0.0 5.0 0.00 0.00 0.00 93 1019.5
20260506071422 56 225 2.0 5.0 0.00 0.00 0.00 92 1019.6
20260506070918 56 156 1.0 6.0 0.00 0.00 0.00 92 1019.3
20260506070415 56 243 3.0 5.0 0.00 0.00 0.00 92 1019.5
20260506062353 56 240 1.0 5.0 0.00 0.00 0.00 91 1019.2
20260506061848 56 243 2.0 7.0 0.00 0.00 0.00 90 1019.2
20260506061345 56 210 2.0 5.0 0.00 0.00 0.00 90 1019.2
20260506060843 56 222 2.0 5.0 0.00 0.00 0.00 90 1019.3
20260506060341 56 222 1.0 5.0 0.00 0.00 0.00 90 1019.2
20260506051313 57 232 2.0 5.0 0.00 0.00 0.00 88 1019.0
20260506050811 57 254 1.0 6.0 0.00 0.00 0.00 88 1019.0
20260506050308 57 233 1.0 4.0 0.00 0.00 0.00 88 1018.8
20260506044758 57 229 0.0 5.0 0.00 0.00 0.00 88 1018.8
20260506044256 57 231 2.0 4.0 0.00 0.00 0.00 88 1018.7
20260506043753 57 222 0.0 5.0 0.00 0.00 0.00 88 1018.5
20260506043250 57 252 2.0 7.0 0.00 0.00 0.00 88 1018.7
20260506042749 57 239 2.0 6.0 0.00 0.00 0.00 88 1018.7
20260506042247 57 248 1.0 5.0 0.00 0.00 0.00 87 1018.7
20260506041745 57 232 2.0 4.0 0.00 0.00 0.00 88 1018.6
20260506041242 57 236 1.0 5.0 0.00 0.00 0.00 87 1018.6
20260506040739 57 225 2.0 6.0 0.00 0.00 0.00 87 1018.7
20260506040236 57 242 0.0 5.0 0.00 0.00 0.00 88 1018.7
20260506035733 57 207 0.0 5.0 0.00 0.00 0.00 88 1018.4
20260506035230 57 269 0.0 5.0 0.00 0.00 0.00 88 1018.3
20260506034727 57 232 1.0 4.0 0.00 0.00 0.00 88 1018.3
20260506034224 57 228 1.0 4.0 0.00 0.00 0.00 88 1018.4
20260506033721 57 222 2.0 4.0 0.00 0.00 0.00 89 1018.3
20260506033218 57 222 3.0 4.0 0.00 0.00 0.00 89 1018.1
20260506032715 57 231 0.0 3.0 0.00 0.00 0.00 89 1018.3
20260506032212 57 40 2.0 4.0 0.00 0.00 0.00 89 1018.2
20260506031709 57 228 2.0 4.0 0.00 0.00 0.00 89 1018.1
20260506031206 57 212 0.0 4.0 0.00 0.00 0.00 88 1017.9
20260506030704 57 238 2.0 3.0 0.00 0.00 0.00 88 1018.0
20260506030201 57 241 2.0 3.0 0.00 0.00 0.00 88 1017.5
20260506025658 57 186 0.0 6.0 0.00 0.00 0.00 88 1017.7
20260506025154 57 231 2.0 5.0 0.00 0.00 0.00 87 1017.6
20260506024646 57 227 1.0 4.0 0.00 0.00 0.00 87 1017.6
20260506024142 58 220 0.0 4.0 0.00 0.00 0.00 87 1017.8
20260506023638 58 172 0.0 3.0 0.00 0.00 0.00 86 1017.7
20260506023136 58 236 1.0 4.0 0.00 0.00 0.00 86 1017.9
20260506022633 58 267 2.0 3.0 0.00 0.00 0.00 86 1017.9
20260506022130 58 252 4.0 5.0 0.00 0.00 0.00 85 1018.0
20260506021628 58 265 1.0 7.0 0.00 0.00 0.00 85 1017.5
20260506021125 59 283 0.0 4.0 0.00 0.00 0.00 84 1017.8
20260506020622 59 48 0.0 5.0 0.00 0.00 0.00 83 1017.6
20260506020120 59 238 2.0 10.0 0.00 0.00 0.00 82 1017.8
20260506015617 59 296 1.0 4.0 0.00 0.00 0.00 82 1017.6
20260506015114 59 221 2.0 5.0 0.00 0.00 0.00 82 1017.7
20260506014612 59 298 0.0 4.0 0.00 0.00 0.00 82 1017.6
20260506014107 59 201 1.0 5.0 0.00 0.00 0.00 81 1017.6
20260506013605 59 256 2.0 6.0 0.00 0.00 0.00 81 1017.7
20260506013102 59 268 1.0 5.0 0.00 0.00 0.00 81 1017.6
20260506012558 59 239 0.0 5.0 0.00 0.00 0.00 80 1017.3
20260506012055 59 247 2.0 5.0 0.00 0.00 0.00 80 1017.3
20260506011553 59 167 1.0 7.0 0.00 0.00 0.00 81 1017.4
20260506011048 60 298 3.0 4.0 0.00 0.00 0.00 80 1017.6
20260506010548 60 249 2.0 5.0 0.00 0.00 0.00 80 1017.5
20260506010044 61 195 2.0 3.0 0.00 0.00 0.00 79 1017.5
20260506005541 60 260 3.0 4.0 0.00 0.00 0.00 79 1017.6
20260506005037 60 263 3.0 5.0 0.00 0.00 0.00 78 1017.4
20260506004535 60 230 1.0 7.0 0.00 0.00 0.00 77 1017.6
20260506004031 61 334 2.0 7.0 0.00 0.00 0.00 77 1017.4
20260506003528 61 284 2.0 6.0 0.00 0.00 0.00 77 1017.3
20260506003024 61 232 2.0 7.0 0.00 0.00 0.00 76 1017.4
20260506002520 62 118 1.0 4.0 0.00 0.00 0.00 76 1017.4
20260506002016 62 154 0.0 9.0 0.00 0.00 0.00 75 1017.4
20260506001512 62 326 3.0 9.0 0.00 0.00 0.00 74 1017.3
20260506001010 63 313 2.0 9.0 0.00 0.00 0.00 73 1017.3
20260506000507 63 299 5.0 10.0 0.00 0.00 0.00 72 1017.2
20260506000004 63 260 3.0 7.0 0.00 0.00 0.00 72 1017.2
20260505235502 63 258 0.0 8.0 0.00 0.00 0.00 72 1017.1
20260505234959 63 278 2.0 7.0 0.00 0.00 0.00 72 1017.1
20260505234456 63 245 6.0 9.0 0.00 0.00 0.00 71 1017.3
20260505233953 64 299 5.0 8.0 0.00 0.00 0.00 69 1017.2
20260505233450 64 12 2.0 12.0 0.00 0.00 0.00 70 1017.1
20260505232947 65 26 4.0 9.0 0.00 0.00 0.00 68 1017.1
20260505232446 65 24 2.0 5.0 0.00 0.00 0.00 68 1017.3
20260505231942 66 307 2.0 9.0 0.00 0.00 0.00 67 1017.2
20260505231440 67 165 2.0 7.0 0.00 0.00 0.00 66 1017.2
20260505230938 67 355 3.0 7.0 0.00 0.00 0.00 66 1017.1
20260505230435 66 223 0.0 9.0 0.00 0.00 0.00 69 1017.2
20260505225931 65 346 2.0 12.0 0.00 0.00 0.00 71 1016.9
20260505225429 65 332 3.0 8.0 0.00 0.00 0.00 71 1017.2
20260505224924 65 244 5.0 10.0 0.00 0.00 0.00 70 1017.2
20260505224421 64 218 2.0 5.0 0.00 0.00 0.00 72 1017.4
20260505223918 64 38 1.0 8.0 0.00 0.00 0.00 72 1017.3
20260505223416 67 188 2.0 7.0 0.00 0.00 0.00 67 1017.4
20260505222912 67 321 3.0 5.0 0.00 0.00 0.00 68 1017.5
20260505222408 65 279 2.0 10.0 0.00 0.00 0.00 71 1017.3
20260505221904 64 304 2.0 9.0 0.00 0.00 0.00 71 1017.4
20260505221401 65 261 5.0 9.0 0.00 0.00 0.00 72 1017.5
20260505220858 63 282 4.0 9.0 0.00 0.00 0.00 73 1017.3
20260505220355 64 288 3.0 14.0 0.00 0.00 0.00 73 1017.3
20260505215853 64 334 4.0 11.0 0.00 0.00 0.00 73 1017.5
20260505215351 64 245 1.0 9.0 0.00 0.00 0.00 75 1017.6
20260505214849 64 252 1.0 6.0 0.00 0.00 0.00 74 1017.4
20260505214346 64 224 3.0 8.0 0.00 0.00 0.00 73 1017.4
20260505213843 63 287 3.0 9.0 0.00 0.00 0.00 74 1017.3
20260505213341 63 282 4.0 9.0 0.00 0.00 0.00 75 1017.5
20260505212837 63 203 2.0 11.0 0.00 0.00 0.00 75 1017.7